TimeMST,TemperatureF,Dew PointF,Humidity,Sea Level PressureIn,VisibilityMPH,Wind Direction,Wind SpeedMPH,Gust SpeedMPH,PrecipitationIn,Events,Conditions,WindDirDegrees,DateUTC
12:53 AM,46.9,44.1,90,30.17,10.0,SSE,8.1,-,N/A,,Clear,150,2011-11-26 07:53:00
1:53 AM,46.9,43.0,86,30.18,10.0,SE,4.6,-,N/A,,Clear,130,2011-11-26 08:53:00
2:53 AM,46.0,42.1,86,30.20,10.0,SSE,3.5,-,N/A,,Clear,150,2011-11-26 09:53:00
3:53 AM,43.0,41.0,93,30.20,10.0,South,3.5,-,N/A,,Clear,190,2011-11-26 10:53:00
4:53 AM,43.0,41.0,93,30.20,10.0,SSE,4.6,-,N/A,,Clear,150,2011-11-26 11:53:00
5:53 AM,43.0,39.9,89,30.21,10.0,SSE,3.5,-,N/A,,Clear,150,2011-11-26 12:53:00
6:53 AM,42.1,39.0,89,30.23,10.0,Calm,Calm,-,N/A,,Clear,0,2011-11-26 13:53:00
7:53 AM,44.6,39.2,81,30.29,10.0,Calm,Calm,-,N/A,,Clear,0,2011-11-26 14:53:00
8:53 AM,48.0,43.0,83,30.27,10.0,SSE,3.5,-,N/A,,Clear,150,2011-11-26 15:53:00
9:53 AM,54.0,43.0,66,30.27,10.0,Calm,Calm,-,N/A,,Clear,0,2011-11-26 16:53:00
10:53 AM,59.0,41.0,51,30.26,10.0,Calm,Calm,-,N/A,,Clear,0,2011-11-26 17:53:00
11:53 AM,63.0,39.0,41,30.24,10.0,NNW,5.8,-,N/A,,Clear,340,2011-11-26 18:53:00
12:53 PM,66.9,28.9,24,30.22,10.0,North,4.6,-,N/A,,Clear,360,2011-11-26 19:53:00
1:53 PM,69.1,23.0,18,30.20,10.0,NNE,5.8,-,N/A,,Clear,30,2011-11-26 20:53:00
2:53 PM,71.1,25.0,18,30.19,10.0,Calm,Calm,-,N/A,,Clear,0,2011-11-26 21:53:00
3:53 PM,70.0,25.0,18,30.20,10.0,Calm,Calm,-,N/A,,Clear,0,2011-11-26 22:53:00
4:53 PM,69.1,25.0,19,30.21,10.0,Calm,Calm,-,N/A,,Clear,0,2011-11-26 23:53:00
5:53 PM,64.9,28.9,26,30.23,10.0,NW,4.6,-,N/A,,Clear,310,2011-11-27 00:53:00
6:53 PM,60.8,19.4,20,30.31,10.0,NNW,5.8,-,N/A,,Clear,330,2011-11-27 01:53:00
7:53 PM,59.0,21.0,23,30.28,10.0,ENE,3.5,-,N/A,,Clear,70,2011-11-27 02:53:00
8:53 PM,53.1,30.0,41,30.30,10.0,Calm,Calm,-,N/A,,Clear,0,2011-11-27 03:53:00
9:53 PM,55.9,25.0,30,30.30,10.0,ESE,6.9,-,N/A,,Clear,110,2011-11-27 04:53:00
10:53 PM,55.0,27.0,34,30.31,10.0,ESE,9.2,-,N/A,,Clear,110,2011-11-27 05:53:00
11:53 PM,54.0,28.0,37,30.31,10.0,ESE,11.5,-,N/A,,Clear,110,2011-11-27 06:53:00